GEFSCGP_850_meantemp_240.txt.gz
Temperature
20 18 19 19 19 21 20 20 19 19 19 18 17 17 17 17 17 17 17 17 17 17 17 17 17 18 18 17 17 17 17 17 16 16 16 16 15 15 15 15 15 15 15 14
19 19 20 20 20 20 20 20 19 19 19 18 17 17 17 17 17 17 17 17 17 17 17 17 17 17 17 17 17 17 17 16 16 16 16 15 15 15 15 15 15 15 15 14
21 21 21 21 21 21 20 20 19 19 19 18 18 17 17 17 17 17 17 17 17 17 17 17 17 17 17 17 16 16 16 16 16 15 15 15 15 15 15 14 14 14 14 14
20 21 22 21 21 21 20 21 20 19 18 17 18 16 17 16 16 16 16 16 16 17 17 17 17 16 16 16 16 16 16 15 15 15 15 15 14 14 14 14 14 14 14 14
21 22 22 22 22 21 21 20 19 18 17 16 16 16 16 16 16 15 15 16 16 16 17 17 16 16 16 16 15 15 15 15 15 15 15 14 14 14 14 14 14 14 14 14
21 21 22 22 22 21 20 19 17 15 15 16 16 16 16 15 16 16 15 16 16 16 16 16 16 16 16 15 15 15 15 15 14 14 14 14 14 14 13 13 13 13 13 13
21 21 21 22 21 20 19 17 17 17 16 16 16 16 15 16 16 16 15 16 16 16 16 16 16 15 15 15 15 15 14 14 14 14 14 14 14 13 13 13 13 13 13 13
20 20 21 21 21 20 19 18 17 17 16 15 16 16 15 16 16 16 16 16 16 16 15 15 15 15 15 15 15 14 14 14 14 14 14 14 13 13 13 13 13 13 13 13
19 20 21 21 20 20 19 16 16 15 15 15 15 16 16 16 16 15 15 15 15 15 15 15 15 15 15 15 14 14 14 14 14 14 13 13 13 13 13 13 13 13 13 12
19 19 20 20 20 19 18 16 14 15 15 16 16 16 15 15 15 14 14 14 15 15 15 15 15 15 15 15 14 14 14 14 14 13 13 13 13 13 13 13 13 12 12 12
18 18 19 19 19 19 18 17 14 13 14 15 15 15 15 15 14 14 14 15 15 15 15 15 15 15 15 15 14 14 14 14 14 14 13 13 13 13 13 13 12 12 12 12
16 15 17 18 19 18 18 17 15 16 15 13 14 14 15 14 14 14 14 15 15 15 15 15 15 15 15 14 14 14 14 14 13 13 13 13 13 13 13 13 12 12 12 12
16 15 16 17 18 18 18 17 15 13 13 13 14 15 15 14 14 14 14 15 15 15 15 15 15 15 14 14 14 14 14 14 13 13 13 13 13 13 13 12 12 12 12 12
16 15 16 17 17 17 18 17 15 14 14 14 14 15 15 14 13 14 14 14 15 15 15 15 14 14 14 14 14 14 14 13 13 13 13 13 13 12 12 12 12 12 12 11
16 16 16 16 17 17 17 17 17 16 15 15 15 14 14 14 13 14 14 14 14 14 14 14 14 14 14 14 14 14 13 13 13 13 13 13 13 12 12 12 12 12 12 11
14 16 16 17 17 17 17 17 17 16 15 15 15 14 14 14 14 14 14 14 14 14 14 14 14 14 14 14 14 13 13 13 13 13 13 13 12 12 12 12 12 12 12 11
13 15 15 15 16 17 17 16 16 16 15 15 15 14 13 13 13 13 14 14 14 14 14 14 14 14 14 14 14 13 13 13 13 13 13 13 12 12 12 12 12 12 12 11
13 13 12 14 16 17 16 16 16 15 15 14 14 13 13 13 14 14 15 15 14 15 14 14 14 14 14 13 13 13 13 13 13 13 13 13 12 12 12 12 12 12 11 11
13 13 12 13 15 15 16 16 15 15 15 14 14 13 13 14 13 14 15 15 15 15 14 14 14 14 14 14 13 13 13 13 13 13 13 13 12 12 12 12 12 12 11 11
12 12 12 13 15 15 16 16 16 15 15 15 14 13 13 13 12 13 14 14 14 14 14 14 14 14 14 13 13 13 13 13 13 13 13 13 13 12 12 12 12 11 11 11
14 13 13 13 14 14 15 16 16 16 15 15 15 14 14 13 13 14 14 14 14 14 14 14 14 14 14 13 13 13 13 13 13 13 13 13 13 12 12 12 12 11 11 11
14 13 13 12 14 15 15 15 15 14 15 15 15 15 15 15 14 14 14 14 14 14 14 14 14 14 14 13 13 13 13 13 13 13 13 13 13 12 12 12 12 11 11 11
12 13 12 12 13 14 15 15 16 16 16 16 16 15 15 15 14 14 14 14 14 14 14 14 13 14 14 13 13 13 13 13 13 13 13 13 13 12 12 12 12 12 11 11
12 12 11 12 13 14 15 16 16 16 16 16 16 15 15 15 14 14 14 14 14 14 14 13 13 13 13 13 13 13 13 13 13 13 13 12 12 12 12 12 12 12 11 11
12 12 11 12 12 13 15 15 16 16 16 15 15 15 15 14 14 14 14 14 14 14 13 13 13 13 13 13 13 13 13 13 13 13 12 12 12 12 12 12 12 12 11 11
11 11 12 12 13 12 14 15 15 15 15 15 15 14 14 14 14 14 14 14 13 13 13 13 13 13 13 13 13 13 13 12 12 12 12 12 12 12 12 11 12 12 11 11

GEFSCGP_850_meantemp_246.txt.gz
Temperature
26 27 27 27 28 28 28 27 27 26 26 26 25 25 24 23 23 22 22 21 20 19 18 17 17 17 17 17 17 17 16 16 16 16 16 15 15 15 15 15 15 15 15 14
27 27 28 28 27 27 27 27 27 26 25 25 25 24 24 23 23 22 21 21 20 19 18 17 17 17 17 16 16 16 16 16 16 16 15 15 15 15 15 14 14 14 14 14
27 28 27 27 27 27 27 27 27 26 25 25 25 24 24 23 22 22 21 21 20 19 18 17 17 16 16 16 16 16 16 15 15 15 15 15 15 15 14 14 14 14 14 14
27 27 27 27 27 27 27 27 26 26 25 26 25 25 25 24 23 22 22 21 20 19 18 18 17 16 16 16 16 15 15 15 15 15 15 14 14 14 14 14 14 13 13 13
27 27 27 27 27 26 26 26 26 26 26 26 25 25 25 24 23 23 22 21 20 19 18 17 17 16 16 15 15 15 15 15 15 15 14 14 14 14 14 14 13 13 13 13
27 27 27 27 26 26 26 26 26 26 26 25 25 25 25 24 23 23 22 21 19 19 18 17 17 16 16 15 15 15 15 15 14 14 14 14 14 14 13 13 13 13 13 13
27 27 27 26 26 26 26 26 26 26 26 25 25 25 24 23 23 22 21 20 19 18 18 17 16 16 15 15 15 14 14 14 14 14 14 14 13 13 13 13 13 13 13 13
26 26 26 26 26 26 26 26 25 25 25 26 24 24 24 23 22 21 20 20 19 18 17 17 16 16 15 15 14 14 14 14 14 14 14 13 13 13 13 13 13 13 13 13
26 26 26 26 26 26 26 26 26 26 25 25 25 24 23 23 22 21 20 19 19 18 17 17 16 15 15 15 14 14 14 13 13 13 13 13 13 13 13 13 13 13 13 12
26 25 26 26 26 26 26 26 25 25 24 24 25 24 24 22 22 21 20 19 19 18 17 16 16 15 15 14 14 14 14 14 13 13 13 13 13 13 13 12 12 12 12 12
26 25 25 26 25 26 25 25 25 25 25 24 24 24 24 22 22 21 21 19 18 18 17 16 16 15 15 14 14 14 14 14 13 13 13 13 13 13 12 12 12 12 12 12
25 25 25 25 25 25 25 25 25 24 24 24 24 24 22 22 21 21 20 19 18 17 17 16 16 15 15 14 14 14 14 13 13 13 13 13 13 12 12 12 12 12 12 12
24 24 24 24 24 24 24 24 25 25 24 24 24 23 22 21 21 20 19 18 17 17 16 16 15 15 15 14 14 14 14 13 13 13 13 13 12 12 12 12 12 12 12 11
23 24 24 24 25 25 24 24 24 24 24 24 24 23 22 21 21 20 19 18 18 17 16 16 15 15 14 14 14 14 13 13 13 13 13 13 12 12 12 12 12 12 12 11
23 24 24 24 24 24 24 24 24 23 23 23 23 23 22 21 20 20 19 18 17 17 16 15 15 15 14 14 14 14 13 13 13 13 13 13 12 12 12 12 12 12 12 11
23 23 23 23 24 23 23 23 23 23 23 23 23 22 22 20 20 19 18 18 17 17 16 15 15 14 14 14 14 13 13 13 13 13 13 13 12 12 12 12 12 12 12 11
23 22 23 24 24 23 23 23 23 23 23 23 23 22 21 20 20 19 18 17 17 16 16 15 15 14 14 14 14 13 13 13 13 13 13 13 13 12 12 12 12 12 11 11
22 22 23 23 23 22 23 23 23 23 22 22 22 21 21 20 19 18 17 17 16 16 15 15 14 14 14 14 14 13 13 13 13 13 13 13 13 12 12 12 12 11 11 11
21 21 22 23 23 23 22 22 22 22 22 21 21 21 20 19 18 18 16 16 15 15 15 14 14 14 14 14 13 13 13 13 13 13 13 13 13 12 12 12 12 11 11 11
21 21 22 22 22 22 22 22 21 21 21 20 20 19 19 18 20 19 16 15 15 14 14 14 14 14 14 14 13 13 13 13 13 13 13 13 12 12 12 12 12 11 11 11
21 21 21 22 22 22 21 21 21 21 20 19 18 18 18 19 19 17 16 15 14 14 14 14 14 14 14 13 13 13 13 13 13 13 13 12 12 12 12 12 11 11 11 11
21 22 21 21 21 21 20 20 20 19 18 18 18 17 17 17 16 16 15 15 14 14 14 14 14 13 13 13 13 13 13 12 12 12 12 12 12 12 12 11 11 11 11 11
21 21 21 21 21 19 18 18 18 17 17 17 17 17 16 16 16 15 15 14 14 14 14 14 13 13 13 13 13 13 12 12 12 12 12 12 12 12 12 11 11 11 11 11
20 19 20 20 20 19 18 17 16 16 16 16 16 16 16 16 15 15 15 14 14 14 14 13 13 13 13 13 13 12 12 12 12 12 12 12 12 12 11 11 11 11 11 11
19 18 19 19 19 18 17 16 16 16 16 16 15 15 15 15 15 15 14 14 14 14 13 13 13 13 13 13 13 12 12 12 12 12 12 12 12 12 11 11 11 11 11 11
19 18 19 19 18 18 17 16 16 16 15 15 15 15 15 15 15 14 14 14 13 13 13 13 13 13 13 13 13 12 12 12 12 12 12 12 12 12 12 12 11 11 11 11

GEFSCGP_850_meantemp_252.txt.gz
Temperature
28 28 27 28 29 28 28 28 28 29 29 29 28 28 27 26 26 26 24 24 23 22 21 20 20 19 18 18 17 17 17 17 17 16 16 16 16 16 16 15 15 15 15 15
28 28 29 29 29 29 28 28 28 28 29 28 28 28 28 27 27 25 25 24 23 22 21 20 19 19 18 18 17 17 17 16 16 16 16 16 15 15 15 15 15 15 15 15
28 29 29 29 29 28 29 28 28 27 28 29 28 27 27 27 26 25 25 24 23 22 21 20 19 19 18 18 17 17 17 16 16 16 15 15 15 15 15 15 15 15 15 15
29 30 29 29 29 28 28 29 29 28 27 27 28 26 26 25 25 25 25 24 23 22 21 20 20 19 18 18 17 17 16 16 16 15 15 15 15 15 15 15 15 15 15 14
29 30 29 29 29 29 29 30 29 28 28 27 27 26 26 26 25 25 25 24 23 22 21 20 20 19 18 17 17 17 16 16 15 15 15 15 15 15 15 15 14 14 14 14
30 31 30 30 30 30 30 29 29 28 28 26 27 27 25 26 25 25 25 24 23 22 21 20 19 19 18 17 17 16 16 16 15 15 15 15 15 15 14 14 14 14 14 14
29 30 31 31 29 30 29 28 26 26 26 26 27 26 25 26 26 26 25 24 22 21 20 20 19 18 18 17 16 16 16 15 15 15 15 15 14 14 14 14 14 14 14 14
28 28 30 30 29 29 29 28 26 24 25 25 26 25 25 26 26 25 24 23 22 21 20 20 19 18 17 17 16 16 15 15 15 15 15 14 14 14 14 14 14 14 14 13
27 28 30 30 30 29 28 28 28 27 26 26 26 25 25 26 25 25 24 23 22 21 20 20 19 18 17 17 16 15 15 15 15 14 14 14 14 14 14 14 14 14 13 13
28 27 29 30 30 30 29 28 27 26 25 25 25 25 24 24 24 24 23 23 22 21 20 19 18 18 17 16 16 15 15 15 15 15 14 14 14 14 14 13 13 13 13 13
29 27 28 29 28 28 28 28 27 27 27 25 24 24 25 25 24 24 23 22 22 21 20 19 18 17 17 16 16 15 15 15 15 14 14 14 14 14 13 13 13 13 13 13
28 28 27 28 29 30 29 28 27 26 26 26 25 24 26 25 25 24 23 22 21 21 20 19 18 17 17 16 16 15 15 15 15 14 14 14 14 13 13 13 13 13 13 13
27 26 25 26 27 28 28 28 28 27 26 26 25 24 25 25 24 23 23 22 21 20 19 19 18 17 16 16 16 15 15 15 15 14 14 14 14 13 13 13 13 13 13 13
26 26 25 25 26 27 27 28 28 27 26 25 25 24 24 24 23 23 22 21 20 20 19 18 18 17 16 16 15 15 15 15 15 14 14 14 13 13 13 13 13 13 13 12
26 26 26 27 28 28 27 27 28 27 26 25 25 25 24 23 23 22 22 21 20 19 18 18 17 17 16 16 15 15 15 15 14 14 14 14 13 13 13 13 13 13 12 12
26 25 26 26 27 27 27 27 27 27 27 26 25 24 24 24 23 22 21 20 20 19 18 17 17 16 16 16 15 15 15 14 14 14 14 14 14 13 13 13 13 12 12 12
25 24 24 25 27 27 26 27 27 26 26 26 24 23 24 23 22 21 21 20 19 18 18 17 16 16 16 16 15 15 15 14 14 14 14 14 13 13 13 13 13 12 12 12
24 24 24 24 25 23 25 27 27 26 25 25 24 23 23 22 22 21 20 19 19 18 17 17 16 16 16 15 15 15 15 14 14 14 14 14 14 13 13 13 13 12 12 12
25 24 24 24 24 24 25 25 26 25 23 24 23 23 22 21 21 20 19 18 18 17 17 16 16 16 15 15 15 14 14 14 14 14 14 14 13 13 13 13 13 12 12 12
25 24 23 23 23 23 23 24 25 25 22 23 22 22 21 21 21 20 18 18 17 17 16 16 16 15 15 15 14 14 14 14 14 14 13 13 13 13 13 13 12 12 12 12
24 24 23 23 22 23 23 24 24 22 21 21 21 21 20 20 19 18 18 17 17 16 16 16 15 15 15 14 14 14 14 14 13 13 13 13 13 13 13 12 12 12 12 12
23 23 23 22 22 21 22 23 21 20 20 20 20 19 19 18 18 18 17 17 17 16 16 15 15 15 14 14 14 14 14 13 13 13 13 13 13 13 13 12 12 12 12 12
23 23 23 22 21 21 21 20 19 19 19 20 19 19 18 18 18 17 17 16 16 16 16 15 15 15 14 14 14 14 13 13 13 13 13 13 13 12 12 12 12 12 12 12
23 23 22 22 21 21 20 20 19 19 19 19 19 18 18 17 17 17 16 16 16 15 15 15 15 15 14 14 14 13 13 13 13 13 13 13 12 12 12 12 12 12 12 12
22 21 22 21 21 21 20 20 19 19 19 18 18 18 17 17 17 16 16 16 15 15 15 15 15 14 14 14 14 13 13 13 13 13 13 13 13 13 13 13 13 13 12 12
21 21 20 20 20 20 20 19 19 19 18 18 18 17 17 17 16 16 16 15 15 15 15 15 14 14 14 14 14 13 13 13 13 13 13 13 13 13 13 13 13 13 13 12

GEFSCGP_850_meantemp_258.txt.gz
Temperature
23 21 20 21 21 22 22 22 22 23 23 22 21 21 21 21 21 20 20 20 20 20 20 19 19 19 18 18 18 17 17 17 17 17 16 16 16 16 15 15 15 15 15 15
21 21 22 23 23 23 23 22 22 22 23 23 21 21 21 21 21 21 20 20 20 20 19 19 19 19 18 18 17 17 17 17 16 16 16 16 15 15 15 15 15 14 14 14
21 22 24 24 23 23 23 22 22 22 23 23 22 21 20 21 21 21 20 20 20 19 19 19 19 18 18 18 17 17 17 17 16 16 16 15 15 15 15 15 14 14 14 14
22 23 24 24 24 24 23 24 24 23 21 20 21 19 20 20 20 20 20 19 19 19 19 19 19 18 18 18 17 17 17 16 16 16 15 15 15 15 15 14 14 14 14 14
23 24 24 24 25 25 24 24 24 23 21 20 20 19 19 19 19 19 19 19 19 20 19 19 19 18 18 17 17 17 16 16 16 15 15 15 15 15 14 14 14 14 14 14
23 24 24 25 25 25 25 23 22 20 19 19 20 19 19 18 19 19 19 19 19 19 19 19 18 18 18 17 17 17 16 16 15 15 15 15 15 14 14 14 14 14 14 14
23 24 25 25 24 24 23 20 19 19 18 19 20 20 18 19 20 20 19 19 19 19 19 19 18 18 17 17 17 16 16 16 15 15 15 15 14 14 14 14 14 14 14 14
22 22 24 25 24 23 23 21 19 20 19 18 19 19 19 20 20 20 20 19 19 19 18 18 18 17 17 17 16 16 16 15 15 15 15 14 14 14 14 14 14 13 13 13
22 22 25 26 26 24 23 21 20 19 19 18 19 19 20 20 19 19 19 19 18 18 18 18 18 17 17 16 16 16 16 15 15 15 14 14 14 14 14 14 14 13 13 13
22 22 24 25 25 24 23 21 18 18 19 18 19 19 18 19 19 18 18 18 18 18 18 18 17 17 17 16 16 16 15 15 15 15 14 14 14 14 14 14 13 13 13 13
22 21 22 23 24 23 23 22 19 17 18 18 18 18 19 19 18 18 17 18 18 18 18 17 17 17 17 16 16 16 15 15 15 15 14 14 14 14 14 14 13 13 13 13
21 19 20 22 23 24 23 22 19 19 19 17 17 18 20 18 18 18 18 18 18 18 17 17 17 17 16 16 15 15 15 15 15 14 14 14 14 14 14 13 13 13 13 13
21 19 19 20 21 22 23 23 20 18 17 17 17 18 19 18 18 18 18 18 18 17 17 17 17 16 16 16 15 15 15 15 14 14 14 14 14 13 13 13 13 13 13 13
21 18 19 20 20 21 22 23 22 19 18 18 18 18 18 17 17 17 18 18 17 17 17 16 16 16 15 15 15 15 15 14 14 14 14 14 14 13 13 13 13 13 13 13
19 19 20 20 22 23 22 23 22 21 19 19 19 18 18 17 17 17 18 17 17 16 16 16 16 15 15 15 15 15 14 14 14 14 14 14 13 13 13 13 13 13 13 12
18 19 20 20 22 22 22 22 22 21 20 19 19 18 17 17 18 17 17 17 16 16 16 16 16 15 15 15 15 15 14 14 14 14 13 13 13 13 13 13 13 13 13 12
17 18 18 18 20 21 20 21 21 20 20 19 18 17 16 16 16 17 17 16 16 16 16 16 15 15 15 15 15 14 14 14 14 14 13 13 13 13 13 13 13 13 13 12
17 17 16 17 19 19 19 20 21 20 19 18 17 16 16 16 17 17 17 17 16 16 16 16 16 15 15 15 15 14 14 14 14 13 13 13 13 13 13 13 13 13 12 12
17 17 16 16 17 18 20 20 20 19 18 17 16 16 16 16 16 16 16 17 16 16 16 16 15 15 15 15 14 14 14 14 14 13 13 13 13 13 13 13 12 12 12 12
17 16 16 16 17 17 18 19 20 18 16 17 16 15 15 16 14 14 16 16 16 16 16 15 15 15 15 14 14 14 14 14 13 13 13 13 13 13 13 12 12 12 12 12
17 16 16 16 16 17 17 19 19 17 16 17 17 16 16 15 15 16 16 16 16 16 15 15 15 15 15 14 14 14 13 13 13 13 13 13 13 13 12 12 12 12 12 12
16 15 15 15 15 16 17 18 17 15 17 17 17 17 17 16 16 16 16 15 15 15 15 15 15 15 14 14 14 13 13 13 13 13 13 13 12 12 12 12 12 12 12 12
15 15 14 14 15 15 17 17 17 18 17 17 17 17 17 16 15 15 15 15 15 15 15 15 15 14 14 14 14 13 13 13 13 13 13 13 13 12 12 12 12 12 12 12
15 15 14 14 15 15 17 17 17 18 17 17 17 17 17 16 16 15 15 15 15 15 15 14 14 14 14 14 13 13 13 13 13 13 13 12 12 12 12 12 12 12 12 12
15 15 14 14 15 15 16 17 17 17 17 17 17 17 16 16 16 15 15 15 15 14 14 14 14 14 14 13 13 13 13 13 13 13 12 12 12 12 12 12 12 12 12 12
14 14 14 14 15 14 16 17 17 17 17 17 17 16 16 16 16 15 15 15 14 14 14 14 14 14 13 13 13 13 13 13 12 12 12 12 12 12 12 12 12 12 12 12

GEFSCGP_850_meantemp_264.txt.gz
Temperature
20 18 19 19 19 20 20 20 19 20 20 20 19 19 19 19 18 18 18 18 18 19 19 19 18 18 18 18 17 17 17 17 16 16 16 16 15 15 15 15 14 14 14 14
19 19 20 20 20 20 20 19 19 20 20 20 19 19 19 18 18 18 18 18 18 18 18 18 18 18 18 17 17 17 17 16 16 16 16 15 15 15 15 14 14 14 14 14
20 20 21 21 21 20 20 19 19 20 20 20 19 19 18 18 18 18 18 18 18 18 18 18 18 18 18 17 17 17 17 16 16 16 15 15 15 15 15 14 14 14 14 14
20 20 21 21 21 20 19 20 20 20 19 18 19 18 18 17 17 17 17 18 18 18 18 18 18 18 18 17 17 17 16 16 16 16 15 15 15 15 14 14 14 14 14 13
20 21 21 21 21 21 20 20 20 20 18 18 18 18 17 17 17 17 17 17 18 18 18 18 18 18 17 17 17 16 16 16 16 15 15 15 14 14 14 14 14 14 13 13
21 21 21 21 22 21 21 19 18 16 16 18 18 17 17 16 17 17 17 18 18 18 18 18 18 18 17 17 16 16 16 16 15 15 15 14 14 14 14 14 14 13 13 13
21 21 21 22 21 21 20 18 18 18 17 17 18 17 17 18 18 18 17 17 18 18 18 18 17 17 17 17 16 16 16 15 15 15 14 14 14 14 14 14 13 13 13 13
20 20 21 22 21 20 19 19 18 18 17 17 17 17 17 18 18 18 18 18 17 18 18 18 17 17 17 17 16 16 15 15 15 15 14 14 14 14 13 13 13 13 13 13
19 20 21 22 22 20 19 18 18 16 17 17 17 17 18 18 17 16 17 17 17 17 17 17 17 17 16 16 16 16 15 15 15 14 14 14 14 14 13 13 13 13 13 13
19 20 21 21 21 20 19 17 15 16 17 17 18 18 17 18 17 16 15 16 16 17 17 17 17 16 16 16 16 15 15 15 15 14 14 14 14 13 13 13 13 13 13 13
19 19 20 21 21 20 19 18 16 15 16 17 17 17 17 17 16 15 15 16 16 16 16 16 16 16 16 16 15 15 15 14 14 14 14 14 14 14 13 13 13 13 13 13
18 17 18 19 20 20 20 18 16 17 17 15 16 16 17 16 15 15 15 16 16 16 16 16 16 16 15 15 15 15 15 14 14 14 14 14 13 13 13 13 13 13 13 13
18 17 18 19 19 19 19 18 17 15 14 14 16 17 16 15 15 15 15 15 15 16 16 16 15 15 15 15 15 14 14 14 14 14 14 13 13 13 13 13 13 13 13 12
17 16 17 18 18 18 19 18 17 16 15 15 16 17 16 15 14 14 15 15 15 15 15 15 15 15 15 15 14 14 14 14 14 14 13 13 13 13 13 13 13 13 12 12
17 17 17 18 19 19 19 18 17 17 16 16 16 16 16 15 14 14 15 15 15 15 15 15 15 15 14 14 14 14 14 14 13 13 13 13 13 13 13 13 12 12 12 12
15 17 17 18 19 18 18 18 18 17 17 16 16 16 15 14 15 14 14 14 14 14 14 15 14 14 14 14 14 14 14 13 13 13 13 13 13 13 13 13 12 12 12 12
14 15 16 17 18 19 18 17 17 17 17 16 16 16 14 14 14 14 14 14 14 14 14 15 15 14 14 14 14 14 13 13 13 13 13 13 13 13 13 12 12 12 12 12
14 14 13 15 18 18 17 17 17 17 16 15 15 14 14 14 14 15 15 15 15 15 14 15 14 14 14 14 14 13 13 13 13 13 12 12 13 12 12 12 12 12 12 12
13 14 13 14 16 16 17 17 16 16 16 15 14 14 13 14 14 14 15 15 15 15 15 14 14 14 14 14 14 13 13 13 13 12 12 12 12 12 12 12 12 12 12 12
13 13 13 14 16 16 16 17 17 16 16 14 14 13 13 14 13 13 15 15 15 15 14 14 14 14 14 14 13 13 13 13 13 12 12 12 12 12 12 12 12 12 12 11
14 13 13 13 15 15 15 16 17 16 15 15 14 14 13 13 14 15 15 15 15 14 14 14 14 14 14 14 13 13 13 13 12 12 12 12 12 12 12 12 12 11 11 11
13 13 13 13 14 15 15 15 15 14 15 15 15 15 14 15 15 15 15 15 14 14 14 14 14 13 13 13 13 13 13 13 12 12 12 12 12 12 12 12 11 11 11 11
12 12 12 13 13 13 14 15 16 16 15 16 16 15 15 15 15 14 14 14 14 14 14 13 13 13 13 13 13 13 12 12 12 12 12 12 12 11 11 11 11 11 11 11
12 11 11 12 13 13 14 15 16 16 16 16 16 16 15 15 15 14 14 14 14 14 13 13 13 13 13 13 12 12 12 12 12 12 12 11 11 11 11 11 11 11 11 11
12 11 11 12 12 13 14 15 16 16 16 16 16 16 15 15 14 14 14 14 14 13 13 13 13 13 13 13 12 12 12 12 12 12 11 11 11 11 11 11 11 11 11 10
10 11 11 12 12 12 13 15 15 15 16 16 15 15 15 15 14 14 14 14 14 13 13 13 13 13 13 12 12 12 12 12 12 11 11 11 11 11 11 11 11 11 10 10